THOR ABLESTAR DEB *, 13502

Orbit data source: Space-Track

THOR ABLESTAR DEB *, 13502 is space debris in LEO originally from a launch on Thu, 29 Jun 1961 UTC launched from the Air Force Eastern Test Range (AFETR). Debris objects in space refer to the collection of defunct objects orbiting the Earth. Examples of debris include non-operational satellites, rocket bodies, and fragments generated from explosions, collisions, or faulty payload assembly.

Loading next visibility...
Identifier
13502, 1961-015KT
Orbit
LEO
Country
Flag of USUS
Related business
Manufacturer
Unknown
Mission
Spacecraft
Bus & Motor
Unknown
Mass
Unknown
Launch date (UTC)
1961-06-29 (64 years ago)
Launch vehicle
Unknown
Launch site
Air Force Eastern Test Range (AFETR)
Object type
Payload
Rocket body
Debris
Shape & HBR
Unknown shape, 0.1 m
Radar Cross Section
Small (<0.1 m²)

Expand to show TLE details & history
Last TLE update: 4 hours ago

TLE from 4 hours ago
0 THOR ABLESTAR DEB *
1 13502U 61015KT  25351.01299326  .00003192  00000-0  27234-2 0  9997
2 13502  66.4463 255.8723 0246342 344.0476 114.9738 13.75386018125703
Epoch: 2025-12-17T00:18Z
TLE epoch observation values (Epoch: 2025-12-17T00:18:42.617Z)
Latitude
64.02422°
Longitude
-77.58705°
Altitude
1,070.616 km
Speed
7.283 km/s
True Right ascension
00h 51m 55s
True Declination
63° 53' 39"
Sunlit
Object was in daylight at epoch
Visualization orbit readout
Latitude
Unknown
Longitude
Unknown
Altitude
Unknown
Speed
Unknown
Apparent Right ascension
Unknown
Apparent Declination
Unknown
Sunlit
N/A
Visualization observer readout
Local Sidereal Time
02:42:18
Azimuth
Unknown
Elevation
Unknown
Doppler factor
Unknown
Orbital elements
Apogee altitude
1,159.973 km
Perigee altitude
797.511 km
Semi-major axis
7,356.879 km
Eccentricity
0.02463
Inclination
66.4463°
RAAN
255.8723°
Arg. of periapsis
344.0476°
True anomaly
117.49906°
Mean anomaly
114.9738°
Eccentric anomaly
116.23979°
Mean motion
3.43956 °/min
Orbital period
104.66 mins
BSTAR
0.0027234

Documentation

Showing up to 5 results
|